User: anonymous   Login
Location: Ertinghausen
(51.6624°N, 9.7874°E)
Time: 20:17:11
(UTC+00:00)
Language:

Cosmos 1733 Rocket - Orbit

View from above orbital plane
View from above orbital plane
View from above satellite
View from above satellite

Ground track
Ground track

The orbit data is extracted from the following two-line orbital elements,

1 16612U 86018B   24197.61623194  .00000894  00000-0  10061-3 0  9996
2 16612  82.5155  29.6785 0015740 255.0882 104.8591 14.85497873953919
Epoch (UTC): 15 July 2024 14:47:22
Eccentricity: 0.0015740
inclination: 82.5155°
perigee height: 601 km
apogee height: 623 km
right ascension of ascending node: 29.6785°
argument of perigee: 255.0882°
revolutions per day: 14.85497873
mean anomaly at epoch: 104.8591°
orbit number at epoch: 95391

The dashed part of the orbit path shows where the satellite is in the earth's shadow,  

DLR